Tracking 19846 objects as of 19-Sep-2019
HD Live streaming from Space Station
objects crossing your sky now

CHINASAT-18

Track CHINASAT-18 now!


NORAD ID: 44493
Int'l Code: 2019-053A
Perigee: 242.9 km
Apogee: 35,770.6 km
Inclination: 28.4 °
Period: 631.3 minutes
Semi major axis: 24377 km
RCS: Unknown
Launch date: August 19, 2019
Source: People's Republic of China (PRC)
Launch site: Xichang Space Center, China (XSC)
aabbcc
Your satellite tracking list
Your tracking list is empty




NASA's NSSDC Master Catalog

Two Line Element Set (TLE):
1 44493U 19053A   19260.05641073 -.00000074  00000-0  00000+0 0  9997
2 44493  28.4302 135.1096 7286914 196.4899  30.4346  2.28092957   658
Source of the keplerian elements: AFSPC